Tracking 19709 objects as of 19-Jun-2019
HD Live streaming from Space Station
objects crossing your sky now

MIDAS 4 DEB

Track MIDAS 4 DEB now!
10-day predictions


NORAD ID: 194
Int'l Code: 1961-028C
Perigee: 3,247.0 km
Apogee: 3,982.3 km
Inclination: 95.9 °
Period: 165.5 minutes
Semi major axis: 9985 km
RCS: 0.6373 m2 (medium)
Launch date: October 21, 1961
Source: United States (US)
Launch site: AIR FORCE WESTERN TEST RANGE (AFWTR)

Note: This is SATELLITE DEBRIS
aabbcc
Your satellite tracking list
Your tracking list is empty




NASA's NSSDC Master Catalog

Two Line Element Set (TLE):
1   194U 61028C   19169.19197376 +.00000016 +00000-0 +81916-2 0  9994
2   194 095.8612 067.2581 0368177 184.8455 174.8782 08.70039803830953
Source of the keplerian elements: AFSPC